Location: Mentone
(34.5413°N, 85.5351°W)
Time: 13:25:33
(UTC-06:00)

Uosat F - Visible Passes

Search period start: 22 December 2014 00:00
Search period end: 01 January 2015 00:00
Orbit: 751 x 763 km, 98.7° (Epoch: 21 December)

Date Brightness Start Highest point End Pass type
(mag) Time Alt. Az. Time Alt. Az. Time Alt. Az.
22 Dec 13.1 05:00:52 10° N 05:01:20 12° N 05:01:20 12° N visible
23 Dec 13.3 04:21:19 10° NNE 04:30:54 13° SSW 04:31:20 10° SSW visible
24 Dec 13.7 03:51:20 11° SSE 03:51:20 11° SSE 03:51:34 10° SSE visible
24 Dec 13.2 05:21:45 10° NNW 05:21:47 10° NNW 05:21:47 10° NNW visible
25 Dec 13.3 04:41:45 10° N 04:42:01 11° N 04:42:01 11° N visible
26 Dec 13.5 04:12:13 11° S 04:12:13 11° S 04:12:22 10° S visible
27 Dec 13.3 05:02:24 10° N 05:02:32 11° N 05:02:32 11° N visible
30 Dec 13.4 04:43:15 10° N 04:43:22 11° N 04:43:22 11° N visible
